FW8022 Weather Reports


Display with metric or nautical units.
time (UTC)temp
F
wind
direction
speed
MPH
gust
MPH
rain 1hr
in
rain 24hr
in
rain mn
in
humidity
%
barometer
mb
20260902100054 60 147 2.0 5.0 0.00 0.00 0.00 85 1014.8
20260902095536 60 163 1.0 7.0 0.00 0.00 0.00 85 1014.9
20260902095036 60 163 2.0 7.0 0.00 0.00 0.00 85 1014.8
20260902094546 60 198 1.0 9.0 0.00 0.00 0.00 85 1014.9
20260902094036 60 180 2.0 9.0 0.00 0.00 0.00 85 1014.9
20260902093539 60 183 3.0 6.0 0.00 0.00 0.00 85 1014.9
20260902093053 60 156 2.0 7.0 0.00 0.00 0.00 85 1014.9
20260902092536 60 153 2.0 7.0 0.00 0.00 0.00 85 1015.0
20260902092037 60 175 3.0 7.0 0.00 0.00 0.00 85 1015.0
20260902091557 60 176 2.0 7.0 0.00 0.00 0.00 85 1015.0
20260902091036 60 182 2.0 5.0 0.00 0.00 0.00 85 1015.0
20260902090536 60 178 1.0 5.0 0.00 0.00 0.00 85 1015.0
20260902090055 60 180 2.0 5.0 0.00 0.00 0.00 85 1015.1
20260902085537 60 157 2.0 5.0 0.00 0.00 0.00 85 1015.0
20260902085036 60 179 1.0 5.0 0.00 0.00 0.00 85 1015.1
20260902084552 60 184 1.0 4.0 0.00 0.00 0.00 86 1015.1
20260902084039 60 190 1.0 4.0 0.00 0.00 0.00 86 1015.1
20260902083538 60 150 1.0 4.0 0.00 0.00 0.00 86 1015.2
20260902083054 60 0 0.0 4.0 0.00 0.00 0.00 85 1015.2
20260902082538 60 158 1.0 4.0 0.00 0.00 0.00 86 1015.3
20260902082039 60 0 0.0 4.0 0.00 0.00 0.00 85 1015.3
20260902081558 60 0 1.0 6.0 0.00 0.00 0.00 86 1015.3
20260902081036 60 198 1.0 6.0 0.00 0.00 0.00 86 1015.2
20260902080538 60 161 3.0 6.0 0.00 0.00 0.00 86 1015.3
20260902080111 60 193 2.0 5.0 0.00 0.00 0.00 87 1015.3
20260902075542 60 214 0.0 4.0 0.00 0.00 0.00 86 1015.2
20260902075037 60 0 0.0 5.0 0.00 0.00 0.00 86 1015.2
20260902074552 60 195 2.0 5.0 0.00 0.00 0.00 86 1015.2
20260902074037 60 188 1.0 4.0 0.00 0.00 0.00 86 1015.1
20260902073538 60 180 1.0 3.0 0.00 0.00 0.00 86 1015.1
20260902073051 60 0 1.0 3.0 0.00 0.00 0.00 86 1015.1
20260902072538 60 189 0.0 3.0 0.00 0.00 0.00 87 1015.2
20260902072042 60 0 1.0 5.0 0.00 0.00 0.00 87 1015.2
20260902071553 60 0 1.0 5.0 0.00 0.00 0.00 87 1015.2
20260902071041 60 196 1.0 4.0 0.00 0.00 0.00 87 1015.3
20260902070537 60 154 0.0 3.0 0.00 0.00 0.00 87 1015.3
20260902070057 60 154 0.0 3.0 0.00 0.00 0.00 87 1015.2
20260902065538 60 198 1.0 5.0 0.00 0.00 0.00 87 1015.3
20260902065037 60 182 2.0 7.0 0.00 0.00 0.00 87 1015.2
20260902064605 60 180 3.0 7.0 0.00 0.00 0.00 87 1015.2
20260902064038 60 189 1.0 4.0 0.00 0.00 0.00 87 1015.3
20260902063538 60 187 1.0 4.0 0.00 0.00 0.00 87 1015.3
20260902063048 60 180 0.0 3.0 0.00 0.00 0.00 87 1015.2
20260902062539 60 180 0.0 3.0 0.00 0.00 0.00 87 1015.3
20260902062039 60 186 1.0 3.0 0.00 0.00 0.00 88 1015.3
20260902061559 60 184 0.0 2.0 0.00 0.00 0.00 88 1015.3
20260902061038 60 184 0.0 2.0 0.00 0.00 0.00 88 1015.4
20260902060537 60 184 1.0 2.0 0.00 0.00 0.00 88 1015.3
20260902060055 59 184 0.0 2.0 0.00 0.00 0.00 88 1015.4
20260902055536 59 184 0.0 1.0 0.00 0.00 0.00 88 1015.4
20260902055039 59 0 0.0 2.0 0.00 0.00 0.00 88 1015.4
20260902054551 59 0 0.0 2.0 0.00 0.00 0.00 88 1015.4
20260902054038 60 184 0.0 2.0 0.00 0.00 0.00 88 1015.4
20260902053538 60 0 0.0 2.0 0.00 0.00 0.00 88 1015.4
20260902053120 60 184 0.0 2.0 0.00 0.00 0.00 88 1015.3
20260902052537 60 0 1.0 2.0 0.00 0.00 0.00 88 1015.3
20260902052037 59 184 0.0 2.0 0.00 0.00 0.00 88 1015.4
20260902051555 60 0 0.0 2.0 0.00 0.00 0.00 88 1015.5
20260902051039 60 184 0.0 2.0 0.00 0.00 0.00 88 1015.4
20260902050538 60 184 0.0 2.0 0.00 0.00 0.00 88 1015.5
20260902050055 60 0 0.0 2.0 0.00 0.00 0.00 88 1015.5
20260902045540 60 184 0.0 2.0 0.00 0.00 0.00 88 1015.5
20260902045037 60 184 0.0 2.0 0.00 0.00 0.00 88 1015.6
20260902044552 60 184 0.0 4.0 0.00 0.00 0.00 88 1015.5
20260902044039 60 184 1.0 4.0 0.00 0.00 0.00 88 1015.5
20260902043536 60 184 1.0 4.0 0.00 0.00 0.00 88 1015.5
20260902043101 60 175 1.0 4.0 0.00 0.00 0.00 88 1015.4
20260902042538 60 184 2.0 4.0 0.00 0.00 0.00 88 1015.5
20260902042038 60 195 0.0 5.0 0.00 0.00 0.00 88 1015.4
20260902041554 60 190 2.0 5.0 0.00 0.00 0.00 88 1015.4
20260902041038 61 196 2.0 5.0 0.00 0.00 0.00 88 1015.4
20260902040537 61 197 2.0 7.0 0.00 0.00 0.00 88 1015.3
20260902040055 61 165 3.0 8.0 0.00 0.00 0.00 88 1015.3
20260902035539 61 200 3.0 8.0 0.00 0.00 0.00 88 1015.3
20260902035037 61 211 4.0 8.0 0.00 0.00 0.00 88 1015.3
20260902034607 61 192 2.0 7.0 0.00 0.00 0.00 88 1015.2
20260902034038 61 184 2.0 7.0 0.00 0.00 0.00 87 1015.2
20260902033539 61 161 3.0 5.0 0.00 0.00 0.00 87 1015.2
20260902033101 61 197 3.0 5.0 0.00 0.00 0.00 87 1015.2
20260902032537 61 205 2.0 6.0 0.00 0.00 0.00 87 1015.2
20260902032038 61 183 2.0 6.0 0.00 0.00 0.00 87 1015.2
20260902031558 61 198 3.0 6.0 0.00 0.00 0.00 87 1015.1
20260902031038 61 239 3.0 6.0 0.00 0.00 0.00 87 1015.0
20260902030540 61 186 3.0 6.0 0.00 0.00 0.00 87 1015.2
20260902025537 61 223 2.0 6.0 0.00 0.00 0.00 87 1015.0
20260902025038 61 211 2.0 6.0 0.00 0.00 0.00 87 1015.0
20260902024550 62 212 3.0 9.0 0.00 0.00 0.00 87 1015.0
20260902024037 62 217 2.0 9.0 0.00 0.00 0.00 86 1015.0
20260902023536 62 200 4.0 8.0 0.00 0.00 0.00 86 1014.9
20260902023048 62 165 3.0 9.0 0.00 0.00 0.00 86 1015.0
20260902022538 62 179 4.0 9.0 0.00 0.00 0.00 86 1015.0
20260902022038 62 222 4.0 8.0 0.00 0.00 0.00 85 1015.1
20260902021608 62 158 4.0 8.0 0.00 0.00 0.00 85 1015.1
20260902021038 62 203 4.0 8.0 0.00 0.00 0.00 85 1015.0
20260902020541 62 251 4.0 8.0 0.00 0.00 0.00 85 1015.0
20260902020050 63 195 4.0 8.0 0.00 0.00 0.00 84 1015.0
20260902015537 63 244 5.0 9.0 0.00 0.00 0.00 84 1015.0
20260902015038 63 229 4.0 9.0 0.00 0.00 0.00 83 1015.0
20260902014552 63 199 4.0 9.0 0.00 0.00 0.00 83 1015.0
20260902014041 63 221 5.0 10.0 0.00 0.00 0.00 83 1015.0
20260902013539 63 222 5.0 10.0 0.00 0.00 0.00 83 1015.0
20260902013048 63 214 5.0 10.0 0.00 0.00 0.00 83 1015.0
20260902012537 63 185 5.0 9.0 0.00 0.00 0.00 82 1014.9
20260902012037 64 212 4.0 9.0 0.00 0.00 0.00 81 1014.9
20260902011555 64 221 4.0 9.0 0.00 0.00 0.00 81 1014.9
20260902011038 64 207 4.0 9.0 0.00 0.00 0.00 79 1014.9
20260902010537 64 208 4.0 9.0 0.00 0.00 0.00 79 1014.9
20260902010057 64 230 4.0 9.0 0.00 0.00 0.00 79 1014.9
20260902005537 64 217 3.0 8.0 0.00 0.00 0.00 78 1014.8
20260902005037 64 200 4.0 8.0 0.00 0.00 0.00 78 1014.9
20260902004552 64 220 3.0 8.0 0.00 0.00 0.00 78 1015.0
20260902004038 64 217 5.0 8.0 0.00 0.00 0.00 78 1014.8
20260902003537 64 215 4.0 8.0 0.00 0.00 0.00 78 1014.7
20260902003048 65 194 4.0 9.0 0.00 0.00 0.00 76 1014.8
20260902002538 65 200 5.0 10.0 0.00 0.00 0.00 76 1014.8
20260902002037 65 223 4.0 10.0 0.00 0.00 0.00 76 1014.9
20260902001550 65 264 3.0 9.0 0.00 0.00 0.00 75 1014.9
20260902001037 65 188 4.0 9.0 0.00 0.00 0.00 74 1014.9
20260902000537 65 239 4.0 9.0 0.00 0.00 0.00 73 1014.9
20260902000101 65 213 5.0 9.0 0.00 0.00 0.00 76 1015.0
20260901235538 66 208 3.0 9.0 0.00 0.00 0.00 76 1015.0
20260901235037 66 209 4.0 9.0 0.00 0.00 0.00 74 1015.0
20260901234556 66 174 4.0 7.0 0.00 0.00 0.00 77 1015.1
20260901234038 65 197 4.0 8.0 0.00 0.00 0.00 76 1015.0
20260901233537 65 247 4.0 9.0 0.00 0.00 0.00 78 1015.1
20260901233100 65 231 5.0 10.0 0.00 0.00 0.00 81 1015.1
20260901232537 65 219 5.0 10.0 0.00 0.00 0.00 83 1015.2
20260901232040 65 198 4.0 8.0 0.00 0.00 0.00 83 1015.2
20260901231554 65 212 4.0 8.0 0.00 0.00 0.00 84 1015.3
20260901231037 65 225 3.0 8.0 0.00 0.00 0.00 84 1015.3
20260901230537 65 214 4.0 9.0 0.00 0.00 0.00 84 1015.4
20260901230054 64 227 4.0 9.0 0.00 0.00 0.00 84 1015.4
20260901225540 64 216 4.0 9.0 0.00 0.00 0.00 83 1015.4
20260901225037 65 232 4.0 8.0 0.00 0.00 0.00 83 1015.5
20260901224559 65 200 3.0 8.0 0.00 0.00 0.00 82 1015.5
20260901224037 65 227 4.0 8.0 0.00 0.00 0.00 82 1015.4
20260901223538 65 270 3.0 8.0 0.00 0.00 0.00 83 1015.6
20260901223054 65 204 4.0 8.0 0.00 0.00 0.00 83 1015.6
20260901222538 65 224 4.0 9.0 0.00 0.00 0.00 82 1015.6
20260901222037 65 278 4.0 9.0 0.00 0.00 0.00 84 1015.7
20260901221553 65 216 4.0 9.0 0.00 0.00 0.00 83 1015.6
20260901221037 65 221 4.0 9.0 0.00 0.00 0.00 84 1015.6
20260901220538 65 272 5.0 9.0 0.00 0.00 0.00 83 1015.6
20260901220054 65 213 5.0 9.0 0.00 0.00 0.00 83 1015.6
20260901215537 65 233 5.0 9.0 0.00 0.00 0.00 83 1015.5
20260901215037 65 216 5.0 8.0 0.00 0.00 0.00 83 1015.5
20260901214557 65 223 4.0 10.0 0.00 0.00 0.00 84 1015.5
20260901214037 64 244 5.0 12.0 0.00 0.00 0.00 85 1015.5
20260901213540 64 221 4.0 12.0 0.00 0.00 0.00 84 1015.5
20260901213051 64 211 5.0 11.0 0.00 0.00 0.00 85 1015.5
20260901212537 64 192 5.0 10.0 0.00 0.00 0.00 84 1015.5
20260901212037 65 184 4.0 10.0 0.00 0.00 0.00 84 1015.4
20260901211553 65 235 5.0 10.0 0.00 0.00 0.00 83 1015.5
20260901211036 66 210 3.0 10.0 0.00 0.00 0.00 83 1015.5
20260901210537 65 212 5.0 10.0 0.00 0.00 0.00 84 1015.4
20260901210051 65 205 5.0 9.0 0.00 0.00 0.00 83 1015.4
20260901205539 65 212 4.0 9.0 0.00 0.00 0.00 83 1015.4
20260901205037 66 227 4.0 8.0 0.00 0.00 0.00 82 1015.4
20260901204550 66 232 4.0 9.0 0.00 0.00 0.00 82 1015.5
20260901204043 65 229 4.0 9.0 0.00 0.00 0.00 82 1015.5
20260901203538 65 232 5.0 9.0 0.00 0.00 0.00 82 1015.5
20260901203103 66 205 4.0 9.0 0.00 0.00 0.00 80 1015.5
20260901202536 66 186 4.0 8.0 0.00 0.00 0.00 81 1015.5
20260901202043 66 198 4.0 8.0 0.00 0.00 0.00 80 1015.5
20260901201552 66 274 4.0 8.0 0.00 0.00 0.00 78 1015.5
20260901201038 66 215 4.0 8.0 0.00 0.00 0.00 78 1015.4
20260901200538 65 232 3.0 8.0 0.00 0.00 0.00 80 1015.4
20260901200106 64 221 4.0 8.0 0.00 0.00 0.00 81 1015.4
20260901195537 65 212 4.0 8.0 0.00 0.00 0.00 81 1015.5
20260901195040 64 226 4.0 8.0 0.00 0.00 0.00 82 1015.5
20260901194601 64 186 4.0 9.0 0.00 0.00 0.00 83 1015.6
20260901194038 64 213 4.0 9.0 0.00 0.00 0.00 82 1015.6
20260901193538 64 220 5.0 9.0 0.00 0.00 0.00 83 1015.6
20260901193109 64 204 5.0 8.0 0.00 0.00 0.00 83 1015.7
20260901192536 64 227 4.0 8.0 0.00 0.00 0.00 82 1015.8
20260901192038 64 209 3.0 9.0 0.00 0.00 0.00 81 1015.8
20260901191553 65 225 4.0 9.0 0.00 0.00 0.00 81 1015.8
20260901191037 65 205 4.0 8.0 0.00 0.00 0.00 81 1015.8
20260901190539 65 209 3.0 8.0 0.00 0.00 0.00 83 1015.8
20260901190059 64 235 4.0 8.0 0.00 0.00 0.00 83 1015.8
20260901185538 64 234 4.0 7.0 0.00 0.00 0.00 84 1015.7
20260901185037 64 219 3.0 9.0 0.00 0.00 0.00 85 1015.8
20260901184553 64 237 4.0 9.0 0.00 0.00 0.00 84 1015.7
20260901184037 64 190 4.0 8.0 0.00 0.00 0.00 85 1015.7
20260901183536 64 250 5.0 8.0 0.00 0.00 0.00 84 1015.6
20260901183054 64 206 4.0 7.0 0.00 0.00 0.00 83 1015.6
20260901182537 64 182 3.0 7.0 0.00 0.00 0.00 82 1015.5
20260901182037 64 202 3.0 7.0 0.00 0.00 0.00 83 1015.5
20260901181601 64 197 3.0 7.0 0.00 0.00 0.00 85 1015.5
20260901181036 63 215 3.0 7.0 0.00 0.00 0.00 85 1015.4
20260901180537 63 238 3.0 6.0 0.00 0.00 0.00 84 1015.4
20260901180053 63 235 3.0 6.0 0.00 0.00 0.00 85 1015.4
20260901175541 63 239 3.0 7.0 0.00 0.00 0.00 85 1015.4
20260901175039 63 209 3.0 7.0 0.00 0.00 0.00 85 1015.3
20260901174552 63 205 3.0 7.0 0.00 0.00 0.00 86 1015.3
20260901174039 63 201 2.0 7.0 0.00 0.00 0.00 86 1015.3
20260901173539 63 191 4.0 7.0 0.00 0.00 0.00 87 1015.3
20260901173102 63 204 3.0 7.0 0.00 0.00 0.00 88 1015.1
20260901172537 62 211 3.0 7.0 0.00 0.00 0.00 89 1015.1
20260901172039 62 211 3.0 6.0 0.00 0.00 0.00 90 1015.0
20260901171603 62 232 3.0 7.0 0.00 0.00 0.00 91 1015.0
20260901171036 62 174 4.0 7.0 0.00 0.00 0.00 91 1015.0
20260901170536 61 171 3.0 7.0 0.00 0.00 0.00 92 1015.0
20260901170106 61 256 4.0 7.0 0.00 0.00 0.00 92 1014.9
20260901165538 61 236 3.0 7.0 0.00 0.00 0.00 92 1014.9
20260901165036 61 236 2.0 6.0 0.00 0.00 0.00 92 1014.9
20260901164602 61 193 3.0 6.0 0.00 0.00 0.00 92 1014.9
20260901164038 61 199 3.0 6.0 0.00 0.00 0.00 92 1014.8
20260901163537 61 186 3.0 6.0 0.00 0.00 0.00 92 1014.7
20260901163100 61 200 2.0 5.0 0.00 0.00 0.00 93 1014.7
20260901162539 60 210 2.0 5.0 0.00 0.00 0.00 93 1014.8
20260901162039 60 202 2.0 5.0 0.00 0.00 0.00 93 1014.7
20260901161609 60 205 2.0 5.0 0.00 0.00 0.00 93 1014.6
20260901161037 60 206 2.0 5.0 0.00 0.00 0.00 93 1014.6
20260901160536 60 184 2.0 5.0 0.00 0.00 0.00 93 1014.6
20260901160052 60 217 2.0 5.0 0.00 0.00 0.00 92 1014.7
20260901155536 60 223 2.0 5.0 0.00 0.00 0.00 92 1014.6
20260901155037 60 201 3.0 5.0 0.00 0.00 0.00 92 1014.6
20260901154551 60 214 2.0 6.0 0.00 0.00 0.00 92 1014.6
20260901154037 60 205 2.0 6.0 0.00 0.00 0.00 92 1014.4
20260901153537 60 242 2.0 6.0 0.00 0.00 0.00 92 1014.4
20260901153101 60 196 3.0 6.0 0.00 0.00 0.00 92 1014.3
20260901152536 60 238 2.0 6.0 0.00 0.00 0.00 92 1014.2
20260901152036 60 239 3.0 6.0 0.00 0.00 0.00 92 1014.1
20260901151554 60 207 3.0 7.0 0.00 0.00 0.00 92 1014.1
20260901151037 60 208 2.0 7.0 0.00 0.00 0.00 92 1014.1
20260901150537 60 175 2.0 7.0 0.00 0.00 0.00 92 1014.0
20260901150052 60 199 3.0 7.0 0.00 0.00 0.00 91 1014.0
20260901145537 60 207 2.0 7.0 0.00 0.00 0.00 91 1014.0
20260901145039 60 190 2.0 6.0 0.00 0.00 0.00 91 1013.9
20260901144552 60 222 3.0 7.0 0.00 0.00 0.00 91 1013.9
20260901144041 60 223 3.0 7.0 0.00 0.00 0.00 90 1013.8
20260901143537 60 194 3.0 7.0 0.00 0.00 0.00 89 1013.8
20260901143057 60 198 2.0 6.0 0.00 0.00 0.00 89 1013.8
20260901142536 60 221 1.0 4.0 0.00 0.00 0.00 88 1013.7
20260901142039 60 227 2.0 4.0 0.00 0.00 0.00 88 1013.6
20260901141552 60 192 2.0 4.0 0.00 0.00 0.00 87 1013.5
20260901141037 60 217 2.0 4.0 0.00 0.00 0.00 87 1013.4
20260901140537 60 221 2.0 5.0 0.00 0.00 0.00 87 1013.4
20260901140110 59 227 2.0 5.0 0.00 0.00 0.00 87 1013.3
20260901135536 59 229 2.0 5.0 0.00 0.00 0.00 86 1013.3
20260901135036 59 240 1.0 4.0 0.00 0.00 0.00 87 1013.3
20260901134549 59 221 1.0 4.0 0.00 0.00 0.00 87 1013.3
20260901134041 59 208 1.0 3.0 0.00 0.00 0.00 88 1013.2
20260901133537 59 223 1.0 4.0 0.00 0.00 0.00 88 1013.2
20260901133054 59 0 1.0 4.0 0.00 0.00 0.00 88 1013.1
20260901132538 59 240 2.0 4.0 0.00 0.00 0.00 88 1013.1
20260901132037 59 0 1.0 4.0 0.00 0.00 0.00 87 1013.0
20260901131551 59 235 1.0 5.0 0.00 0.00 0.00 87 1013.0
20260901131036 59 212 1.0 5.0 0.00 0.00 0.00 87 1013.1
20260901130540 60 212 2.0 5.0 0.00 0.00 0.00 87 1013.1
20260901130050 60 233 2.0 5.0 0.00 0.00 0.00 86 1013.0
20260901125536 59 215 2.0 5.0 0.00 0.00 0.00 86 1013.0
20260901125033 60 213 2.0 5.0 0.00 0.00 0.00 85 1012.9
20260901124545 60 201 2.0 5.0 0.00 0.00 0.00 85 1012.8
20260901124040 60 193 2.0 5.0 0.00 0.00 0.00 84 1012.8
20260901123537 60 217 2.0 5.0 0.00 0.00 0.00 84 1012.9
20260901123117 60 227 3.0 5.0 0.00 0.00 0.00 84 1013.0
20260901122537 60 201 2.0 5.0 0.00 0.00 0.00 83 1012.9
20260901122036 60 227 2.0 4.0 0.00 0.00 0.00 83 1012.9
20260901121604 60 211 2.0 4.0 0.00 0.00 0.00 83 1012.8
20260901121040 60 252 1.0 4.0 0.00 0.00 0.00 83 1012.8
20260901120536 60 227 1.0 4.0 0.00 0.00 0.00 83 1012.7
20260901120052 60 242 1.0 4.0 0.00 0.00 0.00 83 1012.7
20260901115537 60 244 1.0 5.0 0.00 0.00 0.00 82 1012.7
20260901115036 60 241 1.0 5.0 0.00 0.00 0.00 82 1012.8
20260901114551 60 216 2.0 7.0 0.00 0.00 0.00 82 1012.8
20260901114037 60 209 2.0 7.0 0.00 0.00 0.00 82 1012.7
20260901113533 60 194 2.0 5.0 0.00 0.00 0.00 82 1012.8
20260901113105 60 204 2.0 5.0 0.00 0.00 0.00 82 1012.7
20260901112540 59 198 2.0 5.0 0.00 0.00 0.00 83 1012.8
20260901112037 59 216 1.0 4.0 0.00 0.00 0.00 83 1012.8
20260901111555 59 200 2.0 5.0 0.00 0.00 0.00 84 1012.9
20260901111041 59 220 2.0 6.0 0.00 0.00 0.00 84 1012.9
20260901110535 59 221 2.0 6.0 0.00 0.00 0.00 84 1013.0
20260901110103 59 201 2.0 5.0 0.00 0.00 0.00 84 1013.0
20260901105537 59 199 3.0 5.0 0.00 0.00 0.00 84 1012.9
20260901105036 59 207 2.0 6.0 0.00 0.00 0.00 85 1012.9
20260901104559 59 221 3.0 6.0 0.00 0.00 0.00 85 1012.8
20260901104035 59 198 2.0 6.0 0.00 0.00 0.00 85 1012.9
20260901103540 59 249 2.0 5.0 0.00 0.00 0.00 86 1012.8
20260901103049 59 231 2.0 6.0 0.00 0.00 0.00 86 1012.8
20260901102536 59 224 2.0 6.0 0.00 0.00 0.00 86 1012.8
20260901102036 59 215 2.0 5.0 0.00 0.00 0.00 86 1012.8
20260901101555 60 224 3.0 7.0 0.00 0.00 0.00 85 1012.8
20260901101037 59 171 3.0 7.0 0.00 0.00 0.00 85 1012.7
20260901100538 60 236 3.0 6.0 0.00 0.00 0.00 85 1012.7